Terug naar catalogus

KUIPER-00601

ActiefCommunicatieLEO
NORAD 69285·PAYLOAD·🇺🇸 United States

Gelanceerd May 29, 2026 vanaf Vandenberg Space Force Base

Loading…

Volgende Passages (komende 24 uur)

TLE

VersSource: CelesTrak SupGP

Epoch: Sep 14, 2026, 21:18 UTC

1 69285C 26118U   26257.88782407  .00004908  00000+0  64262-3 0  2574
2 69285  51.9029   4.0108 0000545  98.2248 182.5939 14.79917881    11

Volg KUIPER-00601 in realtime met AllMySat

Download on the App Store